Showing default

COSMOS 2538, 44424

Orbit data source: Space-Track

COSMOS 2538, 44424 is a payload satellite owned by TsNIIKhM (CIS) in SSO that was launched on Wed, 10 Jul 2019 UTC via a SOYUZ-2-1V launch vehicle from the Plesetsk Missile And Space Complex (PKMTR). Payload-class satellites include a variety of spacecraft equipped with specific instruments for various scientific and technological missions. These include communications satellites like Starlink; space stations such as the ISS; scientific satellites like the Hubble; Earth observation satellites from companies like Planet Labs, Umbra, and HawkEye 360; GPS; miniature CubeSats for education and research; and military/defense satellites.

Loading next visibility...
Identifier
44424, 2019-039D
Orbit
SSO
Last TLE update
7 hours ago
Origin
Manufacturer
TsNIIKhM
Mission
Operational Defense Technology
Bus & Motor
NIVELIR, Unknown motor
Mass
~100 kg wet, ~100 kg dry
Launch date (UTC)
2019-07-10 (6 years ago)
Launch vehicle
SOYUZ-2-1V
Launch site
Plesetsk Missile And Space Complex (PKMTR)
Object type
Payload
Rocket body
Debris
Shape & HBR
Sphere, 0.8 m
Radar Cross Section
0.503 m², Medium (>0.1 m² and < 1m²)

Expand to show TLE details & history

TLE from 7 hours ago
0 COSMOS 2538
1 44424U 19039D   25194.14382597  .00005167  00000-0  26795-3 0  9991
2 44424  97.6240 266.7831 0048221 139.8477 220.6335 15.15592716328463
Epoch: 2025-07-13T03:27Z
TLE epoch observation values (Epoch: 2025-07-13T03:27:06.563Z)
Latitude
-0°
Longitude
-76.26552°
Altitude
547.572 km
Speed
7.574 km/s
True Right ascension
17h 47m 07s
True Declination
0° 00' 00"
Sunlit
Object was in full shadow at epoch
Visualization orbit readout
Latitude
-48.13°
Longitude
95.5001°
Altitude
537.497 km
Speed
7.593 km/s
Apparent Right ascension
08h 20m 19s
Apparent Declination
-53° 43' 37"
Sunlit
Object is in daylight
Visualization observer readout
Local Sidereal Time
23:13:16
Azimuth
130.141° SE
Elevation
-57.984°
Doppler factor
1
Orbital elements
Apogee altitude
549.406 km
Perigee altitude
482.916 km
Semi-major axis
6,894.298 km
Eccentricity
0.00482
Inclination
97.624°
RAAN
266.7831°
Arg. of periapsis
139.8477°
True anomaly
Unknown
Mean anomaly
220.6335°
Eccentric anomaly
Unknown
Mean motion
3.79147 °/min
Orbital period
94.95 mins
BSTAR
0.00026795
Loading maneuver chart data...
Loading SW <> Apogee altitude chart data...

COSMOS 2538 Visibility forecast

Observer location: undefined°, undefined°

Span
Click to sort rows by Start time (UTC) header in descending order
Start Az.
Max El. time (UTC)
Max El. Az.
Max El.
End time (UTC)
End Az.
4 mins2025-07-13 18:17:27.224Z335.474° NNW2025-07-13 18:19:27.224Z274.534° WNW28.14°2025-07-13 18:21:27.224Z230.241° WSW
6 mins2025-07-14 04:56:27.224Z169.412° S2025-07-14 04:58:27.224Z179.427° S42.713°2025-07-14 05:02:27.224Z346.594° N
|